格洛纳斯M-724 COSMOS 2442 [GLONASS-M]

导读 | 豆包AI

COSMOS 2442是隶属于独联体(CIS)俄罗斯GLONASS全球卫星导航系统的导航卫星,于2008年9月25日发射升空。作为GLONASS-M系列补网卫星,它承担全球导航定位服务,卫星采用三轴稳定设计,搭载精密铯原子钟作为频率基准,运行于约1.91万公里高度的中圆轨道,为GLONASS系统重构全球覆盖能力、提升服务稳定性提供关键支撑,助力该系统向军民用户提供全天候导航定位服务。

基本信息
目录编号:
33378
目录名称:
COSMOS 2442 (GLONASS)
国际标识:
2008-046A
轨道中心:
EARTH
卫星名称:
格洛纳斯M-724
卫星全名:
格洛纳斯M-724 COSMOS 2442 [GLONASS-M]
卫星状态:
在轨 (已飞行6379 天)
发射日期:
2008-09-25 UTC
国别 :
俄罗斯(独联体) (CIS)
星等 :
--
轨道信息
数据来源 国际轨道数据 AOE轨道数据
星历时间 2026-03-12T15:32:39+0800
2天前
查看轨道信息
2026-03-14T03:00:00+0800
14小时前
查看轨道信息
半长轴 25507.466km 25507.506km
偏心率 0.0017745 0.0017659
轨道倾角 65.518° 65.517°
近地点辐角 314.129° 314.213°
升交点赤经 318.135° 318.085°
平近点角 227.427° 280.728°
近地点 19084.066km 19084.325km
远地点 19174.592km 19174.413km
周期 675.711分钟 675.712分钟
每日圈数 2.13109 2.131085
详细信息
平衡模式:
三轴稳定
覆盖范围:
全球
运营商:
列舍特涅夫卫星信息系统
运营商所在国:
俄罗斯
制造商(研发单位):
列舍特涅夫卫星信息系统
制造商所在国:
俄罗斯
使用方式:
暂无
卫星简介
格洛纳斯(GLONASS )是苏联/俄罗斯研制卫星导航系统。标准配置为24颗卫星,其中18颗卫星就能保证该系统为俄罗斯境内用户提供全部服务。该卫星已退役。
2D轨道图
3D轨道图
轨道高度分析图
轨道倾角分析图
轨道综合分析图
查看轨道综合分析图